{"data":{"norad_id":65763,"intl_designator":"2025-217B","name":"KUIPER-00132","alt_names":[],"object_type":"PAYLOAD","status":"ACTIVE","operator":null,"country":"US","launch_date":"2025-09-25","launch_site_code":"AFETR","launch_vehicle":null,"mission":null,"orbit_class":"UNKNOWN","rcs_meters":null,"size_class":null,"mass_kg":null,"dimensions":null,"purposes":[],"wikipedia_slug":null,"has_3d_model":false,"image_url":null,"decayed_at":null,"tle_current":{"epoch":"2026-09-20T21:46:30.916992Z","epoch_age_seconds":111810,"freshness":"FRESH","line1":"1 65763U 25217B   26263.90730228  .00015739  00000+0  40418-3 0  9998","line2":"2 65763  51.8517 133.4655 0004794 301.4518  58.6000 15.39468460 55532","mean_motion":15.3946846,"eccentricity":0.0004794,"inclination_deg":51.8517,"raan_deg":133.4655,"arg_perigee_deg":301.4518,"mean_anomaly_deg":58.6,"bstar":0.00040418,"rev_number":5553,"period_min":93.538778962708,"perigee_km":444.40775874879,"apogee_km":450.95235214155,"semimajor_km":6825.8170554452,"source":"CELESTRAK","updated_at":"2026-09-21T09:00:15.533521Z"}}}